TimeEST,TemperatureF,Dew PointF,Humidity,Sea Level PressureIn,VisibilityMPH,Wind Direction,Wind SpeedMPH,Gust SpeedMPH,PrecipitationIn,Events,Conditions,WindDirDegrees,DateUTC
12:12 AM,37.4,30.2,75,30.46,10.0,NW,3.5,-,N/A,,Clear,320,2012-11-17 05:12:00
12:33 AM,41.0,30.2,65,30.46,10.0,NW,4.6,-,N/A,,Clear,320,2012-11-17 05:33:00
12:54 AM,39.2,30.2,70,30.46,10.0,NW,3.5,-,N/A,,Clear,320,2012-11-17 05:54:00
1:15 AM,37.4,30.2,75,30.47,10.0,Calm,Calm,-,N/A,,Clear,0,2012-11-17 06:15:00
1:36 AM,37.4,30.2,75,30.48,10.0,NW,3.5,-,N/A,,Clear,320,2012-11-17 06:36:00
1:57 AM,35.6,28.4,75,30.49,10.0,Calm,Calm,-,N/A,,Clear,0,2012-11-17 06:57:00
2:18 AM,35.6,30.2,81,30.49,10.0,Calm,Calm,-,N/A,,Clear,0,2012-11-17 07:18:00
3:03 AM,33.8,30.2,87,30.49,10.0,NW,3.5,-,N/A,,Clear,310,2012-11-17 08:03:00
3:24 AM,32.0,28.4,87,30.50,10.0,NW,3.5,-,N/A,,Clear,320,2012-11-17 08:24:00
3:45 AM,32.0,28.4,87,30.50,10.0,Calm,Calm,-,N/A,,Clear,0,2012-11-17 08:45:00
4:06 AM,32.0,28.4,87,30.51,10.0,Calm,Calm,-,N/A,,Clear,0,2012-11-17 09:06:00
4:27 AM,33.8,30.2,87,30.51,10.0,Calm,Calm,-,N/A,,Clear,0,2012-11-17 09:27:00
4:36 AM,33.8,30.2,87,30.51,10.0,Calm,Calm,-,N/A,,Clear,0,2012-11-17 09:36:00
5:45 AM,32.0,28.4,87,30.53,10.0,Calm,Calm,-,N/A,,Clear,0,2012-11-17 10:45:00
6:50 AM,32.0,28.4,87,30.56,-9999.0,Calm,Calm,-,N/A,,Clear,0,2012-11-17 11:50:00
7:45 AM,35.6,30.2,81,30.57,10.0,NNW,3.5,-,N/A,,Clear,340,2012-11-17 12:45:00
8:50 AM,44.6,30.2,57,30.60,10.0,North,4.6,-,N/A,,Clear,10,2012-11-17 13:50:00
9:45 AM,48.2,28.4,46,30.61,10.0,NNE,5.8,-,N/A,,Clear,30,2012-11-17 14:45:00
10:45 AM,50.0,28.4,43,30.61,10.0,NE,5.8,-,N/A,,Clear,40,2012-11-17 15:45:00
11:45 AM,51.8,28.4,41,30.60,10.0,Calm,Calm,-,N/A,,Clear,0,2012-11-17 16:45:00
12:55 PM,53.6,28.4,38,30.58,10.0,ENE,6.9,-,N/A,,Clear,60,2012-11-17 17:55:00
1:55 PM,53.6,32.0,44,30.57,10.0,SE,8.1,-,N/A,,Clear,130,2012-11-17 18:55:00
2:55 PM,50.0,30.2,47,30.57,10.0,ESE,8.1,-,N/A,,Clear,120,2012-11-17 19:55:00
3:50 PM,53.6,26.6,35,30.58,10.0,East,8.1,-,N/A,,Partly Cloudy,100,2012-11-17 20:50:00
5:55 PM,46.4,33.8,62,30.57,10.0,NNW,3.5,-,N/A,,Scattered Clouds,330,2012-11-17 22:55:00
9:27 PM,37.4,32.0,81,30.62,10.0,Calm,Calm,-,N/A,,Clear,0,2012-11-18 02:27:00
9:45 PM,39.2,33.8,81,30.62,10.0,Calm,Calm,-,N/A,,Clear,0,2012-11-18 02:45:00
9:48 PM,35.6,32.0,87,30.62,10.0,North,3.5,-,N/A,,Clear,350,2012-11-18 02:48:00
10:09 PM,37.4,33.8,87,30.62,10.0,Calm,Calm,-,N/A,,Clear,0,2012-11-18 03:09:00
10:30 PM,37.4,32.0,81,30.62,10.0,Calm,Calm,-,N/A,,Clear,0,2012-11-18 03:30:00
10:51 PM,37.4,33.8,87,30.63,10.0,Calm,Calm,-,N/A,,Clear,0,2012-11-18 03:51:00
11:12 PM,37.4,35.6,93,30.62,10.0,NNW,3.5,-,N/A,,Clear,340,2012-11-18 04:12:00
11:33 PM,37.4,33.8,87,30.63,10.0,Calm,Calm,-,N/A,,Clear,0,2012-11-18 04:33:00
11:54 PM,37.4,33.8,87,30.62,10.0,NNW,3.5,-,N/A,,Clear,340,2012-11-18 04:54:00